Regional Weather Roundup
Issued by NWS

Home | Current Version | Previous Version | Graphics & Text | Print | Product List | Glossary Off
Versions: 1 2 3 4 5 6 7 8 9 10 11 12 13 14 15 16 17 18 19 20 21 22 23 24 25 26 27 28 29 30 31 32 33 34 35 36 37 38 39 40 41 42 43 44 45 46 47 48 49 50

000
ASUS43 KBIS 251220
RWRND

NORTH DAKOTA REGIONAL WEATHER ROUNDUP
NATIONAL WEATHER SERVICE BISMARCK ND
600 AM CST THU DEC 25 2014

NOTE: "FAIR" INDICATES FEW OR NO CLOUDS BELOW 12,000 FEET WITH NO
SIGNIFICANT WEATHER AND/OR OBSTRUCTIONS TO VISIBILITY.


NDZ001>003-009>011-017-251300-
NORTHWEST NORTH DAKOTA

CITY           SKY/WX    TMP DP  RH WIND       PRES   REMARKS
WILLISTON      CLOUDY    28  24  85 N12       29.68R WCI  18
6HR MIN TEMP:  19; 6HR MAX TEMP:  28;

MINOT          CLOUDY    28  23  81 W10       29.61R WCI  19
MINOT AFB      CLOUDY    28  28  99 NW13      29.61R WCI  17
$$

NDZ018>021-031>035-040>046-251300-
SOUTHWEST NORTH DAKOTA

CITY           SKY/WX    TMP DP  RH WIND       PRES   REMARKS
BISMARCK       MOCLDY    24  20  84 NW7       29.63R WCI  16
6HR MIN TEMP:  23; 6HR MAX TEMP:  29;

DICKINSON      CLOUDY    24  20  84 NW9       29.61R WCI  14
GARRISON         N/A     23  20  88 NW13      29.61R WCI  11
6HR MIN TEMP:  20; 6HR MAX TEMP:  26;

HETTINGER ARPT CLOUDY    28  24  85 N13       29.60R WCI  17
$$

NDZ004>008-012>016-024-026-027-054-251300-
NORTHEAST NORTH DAKOTA

CITY           SKY/WX    TMP DP  RH WIND       PRES   REMARKS
GRAND FORKS    PTCLDY    24  22  91 W6        29.56R WCI  17
GRND FRKS AFB  PTCLDY    23  23  99 NW7       29.57R WCI  15
DEVILS LAKE    CLOUDY    19  16  86 W9        29.58R WCI   9
$$

NDZ022-023-025-028>030-036>039-047>053-251300-
SOUTHEAST NORTH DAKOTA

CITY           SKY/WX    TMP DP  RH WIND       PRES   REMARKS
FARGO          CLOUDY    27  23  85 NW10      29.59R WCI  17
6HR MIN TEMP:  26; 6HR MAX TEMP:  31;

JAMESTOWN      CLOUDY    23  20  88 NW12      29.59R WCI  12
$$



USA.gov is the U.S. government's official web portal to all federal, state and local government web resources and services.